STARLINK-35293, 66012

Orbit data source: Space-Track

STARLINK-35293, 66012 is a payload satellite owned by SpaceX/Seattle (US) in LEO that was launched on Thu, 16 Oct 2025 UTC via an FALCON 9 launch vehicle from the Air Force Eastern Test Range (AFETR). Payload-class satellites include a variety of spacecraft equipped with specific instruments for various scientific and technological missions. These include communications satellites like Starlink; space stations such as the ISS; scientific satellites like the Hubble; Earth observation satellites from companies like Planet Labs, Umbra, and HawkEye 360; GPS; miniature CubeSats for education and research; and military/defense satellites.

Loading next visibility...
Identifier
66012, 2025-232H
Orbit
LEO
Country
Flag of USUS
Related business
Manufacturer
SpaceX/Seattle
Mission
Operational Commercial Communications
Bus & Motor
STARLINK V2MO, Unknown motor
Mass
575 kg wet, ~530 kg dry
Launch date (UTC)
2025-10-16 (8 months ago)
Launch vehicle
FALCON 9
Launch site
Air Force Eastern Test Range (AFETR)
Object type
Payload
Rocket body
Debris
Shape & HBR
Box + 2 Pan, 17.7 m
Radar Cross Section
36.964 m², Large (>1 m²)

Expand to show TLE details & history
Last TLE update: 1 day ago

TLE from 1 day ago
0 STARLINK-35293
1 66012U 25232H   26170.86682435  .00023967  00000-0  81856-3 0  9995
2 66012  53.1595 348.9999 0001108  96.6124 263.5003 15.30206584 39087
Epoch: 2026-06-19T20:48Z
TLE epoch observation values (Epoch: 2026-06-19T20:48:13.623Z)
Latitude
-0.00003°
Longitude
128.85347°
Altitude
476.181 km
Speed
7.629 km/s
True Right ascension
23h 15m 59s
True Declination
0° 00' 00"
Sunlit
Object was in daylight at epoch
Visualization orbit readout
Latitude
Unknown
Longitude
Unknown
Altitude
Unknown
Speed
Unknown
Apparent Right ascension
Unknown
Apparent Declination
Unknown
Sunlit
N/A
Visualization observer readout
Local Sidereal Time
07:24:01
Azimuth
Unknown
Elevation
Unknown
Doppler factor
Unknown
Orbital elements
Apogee altitude
476.211 km
Perigee altitude
474.693 km
Semi-major axis
6,853.589 km
Eccentricity
0.00011
Inclination
53.1595°
RAAN
348.9999°
Arg. of periapsis
96.6124°
True anomaly
263.48769°
Mean anomaly
263.5003°
Eccentric anomaly
263.49399°
Mean motion
3.82531 °/min
Orbital period
94.11 mins
BSTAR
0.00081856
Loading maneuver chart data...
Computing Atmospheric mass density...
Loading historical data...
Loading historical data...
Loading historical data...
Loading historical data...
Loading historical data...
Loading historical data...
Loading historical data...

Documentation

Showing up to 5 results
|